Location: Bohy
(49.9380°N, 13.5753°E)
Time: 06:46:58
(UTC+00:00)

GEOS 3 Rocket - Pass Details

Date: 19 May 2025
Orbit: 782 x 831 km, 115.0° (Epoch: 14 June)

Event Time Altitude Azimuth Distance (km) Brightness Sun altitude
Exits shadow 23:21:50 12° 121° (ESE) 2,215 5.6 -19.9°
Maximum altitude 23:26:31 64° 42° (NE) 880 3.9 -19.9°
Drops below altitude 10° 23:31:37 10° 322° (NW) 2,380 6.7 -19.8°
Sets 23:33:56 0° 320° (NW) 3,320 7.4 -19.7°
